Find Starlink 31904

NORAD ID: 59657 Int'l Des: 2024-084 Owner: SPXS Country: US Constellation: starlink operational
LEOCIRCULAR

实时位置

正在加载3D地球...

关于 Starlink 31904

正在加载描述...

即将过境

Passes for default location (London). Set your location on the main map for personalized predictions.

高度历史

Loading altitude history...

两行轨道根数

1 59657U 24084D 26129.11511106 .00006843 00000-0 25821-3 0 9998
2 59657 43.0015 60.6187 0000941 299.2239 60.8519 15.27549078113614
Epoch: May 9, 2026 • Age: 23 hours

当前状态

高度 488.6 km
速度 7.62 km/s
星下点 -23.09°S, 9.35°E
发射日期 May 6, 2024
运行时间 2 years
类型 internet

技术详情

分类 Payload
质量 730.00 kg
干质量 700.00 kg
总质量 730.00 kg
长度 0.30 m
直径 4.10 m
跨度 29.00 m
形状 Box + pan
制造商 SPXS
平台类型 Starlink V2M
阶段状态 In Orbit
所有者/国家 SPXS/US

Most Searched